Flag for Angola Weather past 2 weeks in Cabinda, Angola

Now
81 °F

Passing clouds.


Feels Like: 88 °F
Forecast: 79 / 84 °F
Wind: 2 mph from South

Location: Pointe Airport-Noire

Current Time: May 6, 2015 at 9:46:38 PM

Latest Report: May 6, 2015 at 9:00 PM


Visibility: 5 mi

Pressure: 29.89 "Hg

Humidity: 94%

Dew point: 79 °F

Location of CabindaLocation

Historic Weather in Cabinda — Graph

°F

Cabinda temperature yesterday

Maximum temperature yesterday: 84 °F (at 10:00 AM)
Minimum temperature yesterday: 77 °F (at 12:00 AM)
Average temperature yesterday: 81 °F

Past Weeks' High & Low Weather Summary

 TemperatureHumidityPressure
High88 °F (Apr 22, 3:00 PM)100% (Apr 25, 1:00 AM)29.98 "Hg (Apr 25, 1:00 AM)
Low73 °F (Apr 25, 3:00 AM)55% (Apr 27, 2:00 PM)29.74 "Hg (Apr 30, 4:00 PM)
Average82 °F85%29.86 "Hg
* Reported Apr 21 8:00 PM — May 6 8:00 PM, Cabinda, Weather by CustomWeather, © 2015

Note: Actual official high and low records may vary slightly from our data, if they occured in-between our weather recording intervals... More about our weather records

Advertising

Cabinda weather history for previous 24 hours

 ConditionsComfort  
Time TempWeatherWind HumidityBarometerVisibility
8:00 PM
Wed, May 6
81 °FPassing clouds.3 mph94%29.86 "Hg5 mi
7:00 PM81 °FPassing clouds.3 mph94%29.83 "Hg5 mi
6:00 PM82 °FScattered clouds.6 mph89%29.80 "HgN/A
5:00 PM84 °FScattered clouds.8 mph84%29.80 "HgN/A
4:00 PM86 °FPassing clouds.8 mph79%29.80 "HgN/A
3:00 PM88 °FPassing clouds.8 mph75%29.83 "HgN/A
2:00 PM88 °FScattered clouds.9 mph75%29.83 "HgN/A
1:00 PM88 °FScattered clouds.7 mph70%29.89 "HgN/A
12:00 PM88 °FScattered clouds.6 mph70%29.89 "HgN/A
11:00 AM86 °FScattered clouds.5 mph75%29.89 "Hg4 mi
10:00 AM84 °FWarm.1 mph79%29.89 "HgN/A
9:00 AM81 °FFog.2 mph89%29.89 "Hg2 mi
8:00 AM81 °FFog.2 mph89%29.86 "Hg2 mi
7:00 AM79 °FFog.2 mph94%29.86 "Hg2 mi
6:00 AM79 °FFog.3 mph94%29.83 "Hg2 mi
5:00 AM79 °FPassing clouds.2 mph94%29.83 "Hg4 mi
4:00 AM79 °FPassing clouds.3 mph94%29.83 "Hg4 mi
3:00 AM79 °FPassing clouds.5 mph94%29.83 "Hg4 mi
2:00 AM79 °FClear.5 mph94%29.83 "Hg5 mi
1:00 AM79 °FPassing clouds.5 mph94%29.86 "Hg5 mi
12:00 AM81 °FPassing clouds.2 mph94%29.89 "Hg5 mi
11:00 PM
Tue, May 5
81 °FPassing clouds.3 mph94%29.89 "Hg5 mi
10:00 PM81 °FPassing clouds.5 mph94%29.89 "Hg5 mi
9:00 PM81 °FPassing clouds.5 mph94%29.89 "Hg5 mi
Weather by CustomWeather, © 2015

See weather overviewHow to use our weather pages